Weather reports worldwide

Advertisment
Le Touquet, France (7003): temperature & dewpoint: 17.04.2019 18:00:00 - 23.04.2019 18:00:00 (CEST)Le Touquet, France (7003): temperature 5cm: 17.04.2019 18:00:00 - 23.04.2019 18:00:00 (CEST)Le Touquet, France (7003): wind speed & gusts: 17.04.2019 18:00:00 - 23.04.2019 18:00:00 (CEST)Le Touquet, France (7003): wind direction: 17.04.2019 18:00:00 - 23.04.2019 18:00:00 (CEST)Le Touquet, France (7003): reduced air pressure: 17.04.2019 18:00:00 - 23.04.2019 18:00:00 (CEST)Le Touquet, France (7003): visibility: 17.04.2019 18:00:00 - 23.04.2019 18:00:00 (CEST)Le Touquet, France (7003): sunshine duration: 17.04.2019 18:00:00 - 23.04.2019 18:00:00 (CEST)Le Touquet, France (7003): precipitation: 17.04.2019 18:00:00 - 23.04.2019 18:00:00 (CEST)
Date & Time tt [°C] td [°C] tt 5cm [°C] ff [km/h] ff [kn] fx [km/h] fx [kn] dd ppp [hPa] vv [km] sd [min] rr [mm]
23.04.2019 18:00:00 18,7 11,0 19,2 8 4 14 8 SE 994,8 20 0 0,0
23.04.2019 17:00:00 18,9 10,2 19,4 9 5 20 11 ESE 995,0 27 0 0,0
23.04.2019 16:00:00 19,3 8,6 21,0 11 6 19 10 ENE 995,2 35 0 0,0
23.04.2019 15:00:00 19,8 8,2 23,2 13 7 21 11 NE 995,8 47 24 0,0
23.04.2019 14:00:00 19,7 9,8 21,3 6 4 16 9 E 996,0 54 12 0,0
23.04.2019 13:00:00 18,2 9,0 21,0 11 6 16 9 SE 996,4 55 0 0,0
23.04.2019 12:00:00 17,9 10,3 21,1 10 6 20 11 ESE 996,6 26 20 0,0
23.04.2019 11:00:00 17,1 8,8 16,7 8 4 18 10 E 996,8 21 13 0,0
23.04.2019 10:00:00 15,1 7,6 14,7 12 6 20 11 ESE 997,0 19 12 0,0
23.04.2019 09:00:00 14,3 6,9 10,6 12 6 18 10 ESE 997,3 16 4 0,0
23.04.2019 08:00:00 13,2 6,1 8,4 11 6 18 10 E 997,5 26 0 0,0
23.04.2019 07:00:00 11,3 6,6 8,5 9 5 13 7 SSE 997,6 19 0 0,0
23.04.2019 06:00:00 11,7 6,8 8,2 11 6 14 8 SE 997,9 19 0 0,0
23.04.2019 05:00:00 11,9 7,0 7,4 9 5 11 6 SSE 998,2 21 0 0,0
23.04.2019 04:00:00 12,8 6,8 7,5 7 4 9 5 SSE 998,8 22 0 0,0
23.04.2019 03:00:00 13,6 6,7 8,4 7 4 14 7 SSE 999,2 21 0 0,0
23.04.2019 02:00:00 14,2 7,3 8,6 8 4 11 6 SE 999,6 21 0 0,0
23.04.2019 01:00:00 13,5 8,1 8,5 2 1 17 9 SW 999,8 21 0 0,0
23.04.2019 00:00:00 13,9 9,1 8,7 2 1 5 3 S 1000,6 18 0 0,0
22.04.2019 23:00:00 13,8 9,2 7,9 0 0 6 3 N 1001,5 22 0 0,0
22.04.2019 22:00:00 14,4 11,5 9,3 4 2 9 5 NNW 1002,1 7 0 0,0
22.04.2019 21:00:00 14,6 11,2 12,1 6 3 9 5 N 1002,2 17 28 0,0
22.04.2019 20:00:00 19,9 9,2 17,9 7 4 16 9 NW 1002,1 19 60 0,0
22.04.2019 19:00:00 20,2 8,2 19,1 13 7 18 10 NW 1002,5 20 11 0,0
22.04.2019 18:00:00 22,0 11,1 20,5 8 4 11 6 NW 1002,9 27 7 0,0
22.04.2019 17:00:00 21,6 9,8 23,3 9 5 16 9 NNW 1003,4 20 33 0,0
22.04.2019 16:00:00 19,2 10,5 23,1 15 8 22 12 NNW 1004,1 15 36 0,0
22.04.2019 15:00:00 23,6 7,2 32,8 15 8 25 14 WNW 1004,5 50 60 0,0
22.04.2019 14:00:00 23,7 9,3 34,9 10 6 18 10 ESE 1004,9 38 60 0,0
22.04.2019 13:00:00 22,3 9,5 32,1 11 6 22 12 ESE 1005,6 20 60 0,0
22.04.2019 12:00:00 20,6 9,5 27,4 14 8 21 12 ESE 1006,3 13 60 0,0
22.04.2019 11:00:00 18,8 8,2 21,7 13 7 22 12 ESE 1006,8 8 60 0,0
22.04.2019 10:00:00 16,7 9,9 15,3 10 6 14 8 SE 1007,4 4,4 52 0,0
22.04.2019 09:00:00 12,6 9,1 9,7 7 4 12 6 SSE 1007,9 4,4 9 0,0
22.04.2019 08:00:00 9,9 7,0 7,2 10 5 14 8 SSE 1008,4 3,4 0 0,0
22.04.2019 07:00:00 9,4 6,5 7,4 9 5 14 8 SSE 1008,6 4,4 0 0,0
22.04.2019 06:00:00 10,3 6,4 7,2 11 6 13 7 SE 1009,1 4,4 0 0,0
22.04.2019 05:00:00 11,3 6,4 6,6 10 5 15 8 SE 1009,8 6 0 0,0
22.04.2019 04:00:00 12,5 6,1 8,0 9 5 14 8 SSE 1010,5 8 0 0,0
22.04.2019 03:00:00 13,0 5,9 8,8 9 5 16 9 SE 1011,1 9 0 0,0
22.04.2019 02:00:00 13,3 5,2 9,2 9 5 16 9 SE 1012,3 11 0 0,0
22.04.2019 01:00:00 13,5 5,1 9,8 9 5 16 8 SE 1013,2 13 0 0,0
22.04.2019 00:00:00 13,4 5,8 10,1 10 6 19 10 ESE 1013,8 10 0 0,0
21.04.2019 23:00:00 14,4 6,0 10,1 12 6 21 11 E 1014,3 10 0 0,0
21.04.2019 22:00:00 16,8 5,4 12,3 14 7 23 12 NE 1014,7 9 0 0,0
21.04.2019 21:00:00 17,3 6,2 14,0 13 7 24 13 NE 1014,9 11 27 0,0
21.04.2019 20:00:00 18,9 7,6 17,2 15 8 26 14 NE 1014,9 12 60 0,0
21.04.2019 19:00:00 21,1 8,7 20,8 19 11 32 17 NNE 1015,2 19 60 0,0
21.04.2019 18:00:00 22,4 8,9 22,8 20 11 33 18 NNE 1015,8 20 60 0,0
21.04.2019 17:00:00 23,9 5,7 26,7 9 5 24 13 E 1016,4 20 60 0,0
21.04.2019 16:00:00 23,6 6,8 29,5 13 7 27 14 E 1017,2 15 60 0,0
21.04.2019 15:00:00 23,0 6,7 30,4 16 8 37 20 ENE 1018,1 13 60 0,0
21.04.2019 14:00:00 22,7 8,0 31,7 18 10 34 18 ENE 1018,8 12 60 0,0
21.04.2019 13:00:00 22,1 7,1 30,0 24 13 39 21 E 1019,4 10 60 0,0
21.04.2019 12:00:00 21,2 5,9 29,0 26 14 42 23 E 1020,2 10 60 0,0
21.04.2019 11:00:00 19,9 9,5 23,2 8 4 16 9 E 1020,9 9 60 0,0
21.04.2019 10:00:00 17,7 8,5 16,4 9 5 18 10 ESE 1021,3 12 60 0,0
21.04.2019 09:00:00 15,2 8,0 11,4 6 3 16 9 ESE 1021,5 7 60 0,0
21.04.2019 08:00:00 12,9 6,0 8,1 11 6 17 9 SE 1021,8 7 46 0,0
21.04.2019 07:00:00 11,4 5,7 5,8 10 6 17 9 ESE 1021,8 9 0 0,0
21.04.2019 06:00:00 10,8 5,7 6,5 9 5 16 9 SE 1022,1 9 0 0,0
21.04.2019 05:00:00 11,6 5,7 6,7 10 6 16 9 ESE 1022,7 9 0 0,0
21.04.2019 04:00:00 11,3 5,8 5,6 10 5 16 9 SE 1023,2 10 0 0,0
21.04.2019 03:00:00 10,9 5,4 4,9 7 4 10 6 SSE 1023,7 14 0 0,0
21.04.2019 02:00:00 10,6 5,1 5,8 4 2 8 4 S 1024,6 15 0 0,0
21.04.2019 01:00:00 12,9 4,8 8,9 5 3 29 15 SSE 1025,3 15 0 0,0
21.04.2019 00:00:00 14,9 4,6 12,3 15 8 29 16 NE 1025,7 14 0 0,0
20.04.2019 23:00:00 16,0 4,7 13,7 21 12 33 18 NE 1026,0 14 0 0,0
20.04.2019 22:00:00 16,4 5,9 13,6 20 11 34 18 NE 1025,9 11 0 0,0
20.04.2019 21:00:00 16,7 7,6 13,9 16 9 27 15 NNE 1025,7 9 26 0,0
20.04.2019 20:00:00 18,3 8,8 16,7 18 10 31 17 NNE 1025,8 11 60 0,0
20.04.2019 19:00:00 20,4 7,4 19,6 20 11 32 18 NNE 1026,0 25 60 0,0
20.04.2019 18:00:00 21,9 8,0 22,3 21 12 33 18 NNE 1026,3 29 60 0,0
20.04.2019 17:00:00 23,6 8,8 25,7 15 8 25 14 NNE 1026,5 17 60 0,0
20.04.2019 16:00:00 24,1 7,7 29,8 19 10 32 17 E 1027,0 20 60 0,0
20.04.2019 15:00:00 24,1 5,9 32,6 16 9 30 16 E 1027,6 25 60 0,0
20.04.2019 14:00:00 23,7 8,1 33,4 18 10 35 19 E 1028,0 15 60 0,0
20.04.2019 13:00:00 23,1 6,8 31,7 22 12 37 20 E 1028,2 15 60 0,0
20.04.2019 12:00:00 22,4 6,6 29,5 22 12 43 23 ENE 1028,3 14 60 0,0
20.04.2019 11:00:00 20,0 9,8 22,1 13 7 27 14 NE 1028,6 10 60 0,0
20.04.2019 10:00:00 17,5 9,6 15,7 12 7 26 14 E 1028,8 10 60 0,0
20.04.2019 09:00:00 14,6 8,8 9,1 7 4 14 8 E 1028,8 9 60 0,0
20.04.2019 08:00:00 10,8 8,4 4,7 5 3 9 5 NW 1028,6 4,0 44 0,0
20.04.2019 07:00:00 9,8 7,2 4,7 2 1 19 10 E 1028,4 4,5 0 0,0
20.04.2019 06:00:00 10,2 7,3 5,3 5 3 11 6 S 1027,9 6 0 0,0
20.04.2019 05:00:00 10,8 7,1 5,9 5 3 12 6 SW 1027,8 7 0 0,0
20.04.2019 04:00:00 11,3 6,8 6,2 3 1 11 6 SW 1027,9 7 0 0,0
20.04.2019 03:00:00 12,2 7,1 9,2 8 5 21 11 NNW 1027,9 8 0 0,0
20.04.2019 02:00:00 13,7 6,5 8,8 8 4 33 18 N 1028,1 10 0 0,0
20.04.2019 01:00:00 15,3 6,6 11,5 16 9 29 16 NNE 1028,2 12 0 0,0
20.04.2019 00:00:00 15,2 6,7 12,7 16 9 32 18 NNE 1028,4 11 0 0,0
19.04.2019 23:00:00 15,7 6,7 13,5 18 10 35 19 NE 1028,3 12 0 0,0
19.04.2019 22:00:00 16,0 7,0 14,1 21 11 34 18 NE 1028,1 11 0 0,0
19.04.2019 21:00:00 17,0 7,9 15,1 21 11 32 17 NE 1027,4 13 24 0,0
19.04.2019 20:00:00 18,4 9,5 17,0 20 11 32 17 NNE 1026,9 14 60 0,0
19.04.2019 19:00:00 20,3 10,7 19,6 22 12 31 17 NNE 1026,4 19 60 0,0
19.04.2019 18:00:00 21,7 10,8 22,2 21 11 28 15 NNE 1026,2 19 60 0,0
19.04.2019 17:00:00 23,5 8,0 26,3 18 10 28 15 ENE 1026,0 23 60 0,0
19.04.2019 16:00:00 23,6 6,4 28,8 17 9 33 18 ENE 1026,0 19 60 0,0
19.04.2019 15:00:00 22,9 7,8 29,8 21 11 34 18 ENE 1026,1 19 60 0,0
19.04.2019 14:00:00 22,6 9,0 30,8 14 8 33 18 E 1026,1 21 60 0,0
19.04.2019 13:00:00 21,8 8,7 31,1 16 9 24 13 E 1026,2 22 60 0,0
19.04.2019 12:00:00 20,4 9,9 29,8 11 6 23 12 E 1026,4 18 60 0,0
19.04.2019 11:00:00 19,1 8,4 23,4 11 6 19 10 E 1026,3 15 60 0,0
19.04.2019 10:00:00 17,6 7,6 16,5 11 6 18 10 E 1026,0 13 60 0,0
19.04.2019 09:00:00 15,2 7,0 11,0 9 5 18 10 E 1025,7 12 60 0,0
19.04.2019 08:00:00 12,7 5,8 7,0 13 7 21 11 E 1025,4 13 40 0,0
19.04.2019 07:00:00 11,3 5,0 8,0 9 5 25 13 ESE 1024,9 14 0 0,0
19.04.2019 06:00:00 11,5 5,4 8,0 11 6 23 12 E 1024,6 15 0 0,0
19.04.2019 05:00:00 11,8 5,6 6,6 9 5 15 8 SE 1024,3 15 0 0,0
19.04.2019 04:00:00 11,5 5,6 6,8 7 4 16 9 SSE 1024,0 14 0 0,0
19.04.2019 03:00:00 12,1 5,5 7,9 9 5 22 12 ESE 1024,0 16 0 0,0
19.04.2019 02:00:00 12,4 5,5 7,7 9 5 17 9 ESE 1023,7 17 0 0,0
19.04.2019 01:00:00 13,3 5,7 7,9 9 5 18 10 E 1023,8 19 0 0,0
19.04.2019 00:00:00 13,5 5,6 8,3 9 5 21 11 E 1023,6 19 0 0,0
18.04.2019 23:00:00 16,0 5,9 12,8 15 8 25 13 ENE 1023,3 18 0 0,0
18.04.2019 22:00:00 16,9 4,9 11,5 13 7 23 12 ENE 1022,9 19 0 0,0
18.04.2019 21:00:00 16,8 4,8 12,2 9 5 23 12 NE 1022,3 24 23 0,0
18.04.2019 20:00:00 19,4 5,1 16,2 13 7 26 14 ENE 1021,7 25 38 0,0
18.04.2019 19:00:00 20,7 4,7 18,1 16 9 35 19 ENE 1021,4 24 46 0,0
18.04.2019 18:00:00 21,8 4,8 21,3 19 11 38 20 E 1021,1 27 60 0,0
18.04.2019 17:00:00 22,1 5,1 24,1 19 10 37 20 E 1021,1 15 60 0,0
18.04.2019 16:00:00 21,9 6,5 26,8 24 13 37 20 E 1021,3 15 60 0,0
18.04.2019 15:00:00 21,2 7,1 27,3 21 12 34 18 E 1021,5 14 60 0,0
18.04.2019 14:00:00 21,0 9,6 27,6 21 11 36 19 E 1021,3 13 60 0,0
18.04.2019 13:00:00 20,3 9,8 28,1 22 12 36 20 E 1021,3 11 60 0,0
18.04.2019 12:00:00 19,1 9,8 26,9 21 11 32 18 E 1021,3 9 60 0,0
18.04.2019 11:00:00 17,8 10,2 21,4 17 9 25 14 E 1021,5 8 60 0,0
18.04.2019 10:00:00 15,3 10,1 14,5 11 6 22 12 E 1021,8 5 60 0,0
18.04.2019 09:00:00 13,0 9,3 9,8 11 6 19 10 E 1021,7 6 60 0,0
18.04.2019 08:00:00 10,6 8,2 7,6 13 7 20 11 E 1021,4 4,7 40 0,0
18.04.2019 07:00:00 9,6 7,5 7,1 11 6 19 11 ESE 1021,2 4,2 0 0,0
18.04.2019 06:00:00 9,9 7,5 7,7 10 5 27 14 E 1021,1 4,5 0 0,0
18.04.2019 05:00:00 10,2 7,8 7,1 16 9 24 13 E 1021,0 4,7 0 0,0
18.04.2019 04:00:00 9,6 7,7 5,5 8 4 16 9 E 1021,3 4,1 0 0,0
18.04.2019 03:00:00 9,0 7,4 5,7 7 4 16 9 ESE 1021,5 4,2 0 0,0
18.04.2019 02:00:00 10,4 7,8 7,6 10 6 18 10 E 1021,6 5 0 0,0
18.04.2019 01:00:00 10,6 8,0 6,4 12 7 21 11 ENE 1021,4 6 0 0,0
18.04.2019 00:00:00 9,9 7,7 5,3 8 4 16 8 E 1021,2 6 0 0,0
17.04.2019 23:00:00 10,5 7,9 5,6 7 4 11 6 SE 1020,7 6 0 0,0
17.04.2019 22:00:00 11,1 7,8 6,4 9 5 15 8 E 1020,7 6 0 0,0
17.04.2019 21:00:00 12,9 7,6 7,8 8 4 18 10 E 1020,3 9 21 0,0
17.04.2019 20:00:00 14,5 8,0 12,6 13 7 26 14 E 1019,9 11 48 0,0
17.04.2019 19:00:00 15,3 7,8 14,8 17 9 29 16 E 1019,6 8 60 0,0
17.04.2019 18:00:00 15,5 8,0 16,1 16 9 29 16 ESE 1019,7 5 54 0,0

tt = temperature
td = dewpoint
tt 5cm = temperature 5cm
ff = wind speed
fx = gusts
dd = wind direction
ppp = reduced air pressure
vv = visibility
sd = sunshine duration
rr = precipitation

Next stations